Hourly Data Report for October 17, 2019

All times are specified in Local Standard Time (LST). Add 1 hour to adjust for Daylight Saving Time where and when it is observed.

SEPT-ILES
QUEBEC
Current Station Operator: ECCC - MSC

50°13'00.000" N
66°15'00.000" W
52.60 m
7047914
71279
XZV

Download Data

Hourly Data (October 2019)
Hourly Data Report for October 17, 2019
TIME Temp Definition
°C
Dew Point Definition
°C
Rel Hum Definition
%
Wind Dir Definition
10's deg

Wind Spd Definition
km/h
Visibility Definition
km
Stn Press Definition
kPa
Hmdx Definition


Wind Chill Definition


Weather Definition


00:00 3.1 1.6 90 5 6   100.83     LegendNANA
01:00 3.1 1.6 90 4 7   100.80     LegendNANA
02:00 2.6 1.2 90 4 8   100.80     LegendNANA
03:00 3.3 1.4 87 4 11   100.67     LegendNANA
04:00 3.7 1.3 84 4 10   100.66     LegendNANA
05:00 5.2 1.8 78 7 12   100.65     LegendNANA
06:00 5.7 1.9 77 6 16   100.61     LegendNANA
07:00 5.9 1.8 75 7 13   100.62     LegendNANA
08:00 6.4 1.9 73 7 16   100.56     LegendNANA
09:00 6.9 2.1 71 8 18   100.48     LegendNANA
10:00 7.3 3.3 76 8 18   100.45     LegendNANA
11:00 6.9 3.7 80 7 20   100.36     LegendNANA
12:00 7.2 3.5 77 7 19   100.26     LegendNANA
13:00 6.6 3.8 83 5 11   100.06     LegendNANA
14:00 6.5 3.2 80 3 18   99.89     LegendNANA
15:00 7.4 0.9 63 5 15   99.70     LegendNANA
16:00 8.1 -0.1 56 5 15   99.61     LegendNANA
17:00 8.3 -0.7 53 5 12   99.50     LegendNANA
18:00 9.0 -2.1 45 6 15   99.32     LegendNANA
19:00 5.4 2.9 84 4 15   99.12     LegendNANA
20:00 5.1 3.9 92 5 12   99.20     LegendNANA
21:00 5.0 3.8 92 4 20   98.95     LegendNANA
22:00 5.2 4.4 94 4 21   98.76     LegendNANA
23:00 5.2 4.5 95 6 18   98.69     LegendNANA

Notes on Data Quality.

Legend

  • E = Estimated
  • M = Missing
  • NA = Not Available
Date modified: